Regional Weather Roundup
Issued by NWS Upton, NY

Current Version | Previous Version | Text Only | Print | Product List | Glossary On
Versions: 1 2 3 4 5 6 7 8 9 10 11 12 13 14 15 16 17 18 19 20 21 22 23 24 25 26 27
000
ASUS41 KOKX 161305
RWROKX

REGIONAL WEATHER ROUNDUP
NATIONAL WEATHER SERVICE NEW YORK NY
900 AM EDT WED APR 16 2014

NOTE: "FAIR" INDICATES FEW OR NO CLOUDS BELOW 12,000 FEET WITH NO
SIGNIFICANT WEATHER AND/OR OBSTRUCTIONS TO VISIBILITY.

NYZ071-072-176-178-NJZ106-104-161400-
NEW YORK CITY METRO AREA


CITY           SKY/WX    TMP DP  RH WIND       PRES   REMARKS
CENTRAL PARK   SUNNY     33  16  49 N9        30.30R WCI  25
LAGUARDIA APRT MOSUNNY   34  15  46 N18G35    30.27R WCI  23
KENNEDY INTL   MOSUNNY   35  17  47 N23G29    30.28R WCI  23
NEWARK/LIBERTY MOSUNNY   34  18  52 NW22G28   30.29R WCI  22
TETERBORO      SUNNY     35  16  45 NW12G22   30.28R WCI  27
$$

NYZ177-179-078>081-161400-
LONG ISLAND NEW YORK

CITY           SKY/WX    TMP DP  RH WIND       PRES   REMARKS
FARMINGDALE    SUNNY     33  17  51 N16G25    30.26R WCI  23
ISLIP          MOSUNNY   34  20  56 N23G30    30.22R WCI  22
SHIRLEY        SUNNY     33  18  53 N17G37    30.25R WCI  22
WESTHAMPTON    SUNNY     34  16  47 N21G29    30.23R WCI  22
MONTAUK POINT  NOT AVBL
$$

NYZ052-065-067-161400-
HUDSON VALLEY

CITY           SKY/WX    TMP DP  RH WIND       PRES   REMARKS
WHITE PLAINS   SUNNY     30  16  56 N18G25    30.24R WCI  18
NEWBURGH       SUNNY     30  18  59 NW14G25   30.27R WCI  20
MONTGOMERY     SUNNY     32  15  49 NW15G28   30.27R WCI  22
POUGHKEEPSIE   MOSUNNY   34  18  52 N10       30.27R WCI  26
ALBANY         MOSUNNY   29   9  43 NW17G30   30.31R WCI  17
$$

NJZ001-105-106-008-010-013-015-019>022-104-161400-
NEW JERSEY

CITY           SKY/WX    TMP DP  RH WIND       PRES   REMARKS
NEWARK/LIBERTY MOSUNNY   34  18  52 NW22G28   30.29R WCI  22
TETERBORO      SUNNY     35  16  45 NW12G22   30.28R WCI  27
CALDWELL       SUNNY     32  16  51 NW14G21   30.30R WCI  22
MORRISTOWN     MOSUNNY   32  19  59 N13G30    30.30R WCI  22
SOMERVILLE     NOT AVBL
LINDEN         FAIR      35  20  54 NW13      30.32R WCI  26
SUSSEX         SUNNY     32  17  54 N12G21    30.28R WCI  23
ANDOVER          N/A     30  16  56 N13G21    30.29R WCI  20
TRENTON        SUNNY     32  14  47 N22G31    30.30R WCI  19
MILLVILLE      SUNNY     34  16  47 NW17G28   30.31R WCI  23
ATLANTIC CITY  SUNNY     34  18  52 N16       30.29R WCI  24
WRIGHTSTOWN    SUNNY     32  18  57 NW16G25   30.29R WCI  21
TOMS RIVER     SUNNY     32  19  59 N7        30.30R WCI  26
BELMAR         SUNNY     34  18  51 NW17G24   30.28R WCI  23
$$

PAZ047>061-062-071-161400-
EASTERN PENNSYLVANIA

CITY           SKY/WX    TMP DP  RH WIND       PRES   REMARKS
PHILADELPHIA   SUNNY     34  11  38 N18G31    30.33R WCI  23
ALLENTOWN      SUNNY     30  15  53 N16G23    30.33R WCI  19
SCRANTON       SUNNY     27  15  61 NW16      30.32R WCI  15
$$

CTZ002-004>006-009-010-012-RIZ004-006-007-MAZ004-011-015-161400-
SOUTHERN NEW ENGLAND
 IN CT

CITY           SKY/WX    TMP DP  RH WIND       PRES   REMARKS
BRADLEY INTL   MOSUNNY   31  12  45 NW22G35   30.23R WCI  18
HARTFORD       SUNNY     32  13  45 N17G30    30.24R WCI  21
DANBURY        SUNNY     29  17  61 NW10G25   30.26R WCI  20
WTRBRY/OXFORD  MOSUNNY   28  10  47 N29G40    30.23R WCI  13
BRIDGEPORT     SUNNY     33  16  49 NW22G31   30.25R WCI  21
MERIDEN        SUNNY     32  15  49 NW20G36   30.24R WCI  20
NEW HAVEN      MOSUNNY   34  15  46 N15G26    30.24R WCI  24
CHESTER        FAIR      32  21  64 N15G23    30.21R WCI  22
GROTON         MOSUNNY   34  22  61 N16G25    30.20R WCI  24
WILLIMANTIC    SUNNY     32  15  49 N16G26    30.22R WCI  21

 IN RI

CITY           SKY/WX    TMP DP  RH WIND       PRES   REMARKS
PROVIDENCE     MOSUNNY   34  18  52 N20G28    30.19R WCI  23
BLOCK ISLAND   SUNNY     36  18  48 N21G30    30.18R WCI  24
WESTERLY       SUNNY     34  16  47 NW17G29   30.20R WCI  23

 IN MA

CITY           SKY/WX    TMP DP  RH WIND       PRES   REMARKS
BOSTON         MOSUNNY   33  18  53 NW20G29   30.19R WCI  21
WORCESTER      MOSUNNY   27  15  61 NW18G26   30.15R WCI  14
WESTFIELD      MOSUNNY   32  15  49 NW16      30.23R WCI  21
PROVINCETOWN   CLOUDY    34  23  64 MISG      30.15R
NANTUCKET      CLOUDY    37  31  78 N25G32    30.12R WCI  25
$$

ANZ330-335-338-340-345-350-353-355-161400-
COASTAL MARINE OBSERVATIONS


STATION/POSITION TIME  SKY/WX   TEMP    WIND        PRES    VSBY  WAVE
                                AIR SEA DIR/SP/G                  HT/PER
                 (UTC)          (F)     (DEG/KT/KT) (MB)    (MI)  (FT/S)
NY HARB ENTRANCE 1300            34 42  340/ 21/ 27 1024.5
4S FIRE IS       1200               43                N/A           4/11
23SW MTP         1300            34 41  330/ 21/ 25 1021.8          7/10
HUDSON CANYON    1200            37 45  340/ 25/ 33 1020.6         11/ 7
EXECUTION ROCKS  1300            35 42  340/ 16/ 23   N/A
WESTERN LI SOUND 1300            33     340/ 14/ 19   N/A           1
CENTRAL LI SOUND 1200            33 41  330/ 23/ 33   N/A           3/ 4
EASTERN LI SOUND NOT AVBL
ROBBINS REEF     1300            33     340/ 21/ 29   N/A
$$


>>>>>>>>>>>>>>>>>>>>>>>>>>>> KEY <<<<<<<<<<<<<<<<<<<<<<<<<<<
>                                                          <
>     SKY/WX - SKY CONDITION/PRESENT WEATHER               <
>     TMP    - TEMPERATURE IN FAHRENHEIT                   <
>     DP     - DEWPOINT IN FAHRENHEIT                      <
>     RH     - RELATIVE HUMIDITY IN PERCENT                <
>     WIND   - DIRECTION AND SPEED IN MPH                  <
>     PRES   - MEAN SEA LEVEL PRESSURE IN INCHES OF HG     <
>     WCI    - WIND CHILL INDEX                            <
>     VSB    - VISIBILITY IN MILES                         <
>     HX     - HEAT INDEX                                  <
>     TC     - TEMPERATURE IN CELSIUS                      <
>     VRB    - VARIABLE WIND DIRECTION                     <
>                                                          <
>>>>>>>>>>>>>>>>>>>>>>>>>>>> KEY <<<<<<<<<<<<<<<<<<<<<<<<<<<





USA.gov is the U.S. government's official web portal to all federal, state and local government web resources and services.